Location: Góry Miechowskie
(50.3599°N, 20.1803°E)
Time: 15:23:09
(UTC+00:00)

Vanguard 1 Rocket - Pass Details

Date: 19 September 2024
Orbit: 650 x 4218 km, 34.3° (Epoch: 07 October)

Event Time Altitude Azimuth Distance (km) Brightness Sun altitude
Rises 08:14:04 0° 278° (W) 7,577 11.7 32.7°
Reaches altitude 10° 08:20:29 10° 267° (W) 6,958 11.7 33.4°
Maximum altitude 08:37:07 24° 224° (SW) 6,253 12.0 35.1°
Drops below altitude 10° 08:54:04 10° 181° (S) 6,978 12.8 36.6°
Sets 09:00:44 0° 169° (S) 7,587 13.0 37.1°
